New Iberia, LA

2:38 AM CDT on April 27, 2018 (GMT -0500)
Acadiana Regional

Weather History for KARA - November, 2012

Change the Weather History Date:

Saturday, November 24, 2012

  Actual Average Record
Temperature  
Mean Temperature 52 °F 59 °F  
Max Temperature 63 °F 69 °F 82 °F (1999)
Min Temperature 40 °F 48 °F 28 °F (1970)
Degree Days  
Heating Degree Days 13 7  
Month to date heating degree days 120 111  
Since 1 July heating degree days 162 145  
Cooling Degree Days 0 1  
Month to date cooling degree days 46 37  
Year to date cooling degree days 3241 2782  
Growing Degree Days 2 (Base 50)    
Moisture  
Dew Point 37 °F    
Average Humidity 56    
Maximum Humidity 78    
Minimum Humidity 34    
Precipitation  
Precipitation 0.00 in 0.19 in 1.62 in (1964)
Month to date precipitation 1.89 3.08  
Year to date precipitation 48.46 53.52  
Sea Level Pressure  
Sea Level Pressure 30.27 in    
Wind  
Wind Speed 8 mph (North)    
Max Wind Speed 20 mph    
Max Gust Speed 24 mph    
Visibility 10 miles    
Events      
T = Trace of Precipitation, MM = Missing Value Source: NWS Daily Summary

Daily Weather History Graph

Daily Weather History Graph

Search for Another Location

Airport or City:

Astronomy

Nov. 24, 2012 Rise Set
Actual Time 6:40 AM CST 5:08 PM CST
Civil Twilight 6:14 AM CST 5:33 PM CST
Nautical Twilight 5:45 AM CST 6:03 PM CST
Astronomical Twilight 5:16 AM CST 6:31 PM CST
Moon 2:42 PM CST (11/24) 3:10 AM CST (11/24)
Length of Visible Light 11h 18m
Length of Day
10h 27m
Waxing Gibbous, 87% of the Moon is Illuminated
Nov 24
Waxing Gibbous
Nov 28
Full
Dec 6
Last Quarter
Dec 13
New
Dec 19
First Quarter

Hourly Weather History & Observations

Time (CST) Temp. Windchill Dew Point Humidity Pressure Visibility Wind Dir Wind Speed Gust Speed Precip Events Conditions
12:53 AM 60.1 °F - 48.9 °F 67% 30.27 in 10.0 mi North 8.1 mph - N/A   Overcast
1:53 AM 59.0 °F - 46.0 °F 62% 30.27 in 10.0 mi North 6.9 mph - N/A   Overcast
2:53 AM 57.9 °F - 44.1 °F 60% 30.27 in 10.0 mi North 10.4 mph - N/A   Overcast
3:53 AM 54.0 °F - 42.1 °F 64% 30.27 in 10.0 mi North 9.2 mph - N/A   Mostly Cloudy
4:53 AM 50.0 °F - 39.9 °F 68% 30.29 in 10.0 mi North 13.8 mph - N/A   Clear
5:53 AM 48.0 °F - 39.0 °F 71% 30.31 in 10.0 mi North 9.2 mph - N/A   Clear
6:53 AM 46.9 °F - 37.9 °F 71% 30.32 in 10.0 mi North 9.2 mph - N/A   Clear
7:53 AM 48.9 °F - 37.9 °F 66% 30.34 in 10.0 mi NNE 13.8 mph - N/A   Clear
8:53 AM 51.1 °F - 36.0 °F 56% 30.34 in 10.0 mi NNE 15.0 mph - N/A   Clear
9:53 AM 54.0 °F - 37.0 °F 53% 30.35 in 10.0 mi NE 10.4 mph - N/A   Clear
10:53 AM 57.0 °F - 37.0 °F 47% 30.34 in 10.0 mi NE 10.4 mph - N/A   Clear
11:53 AM 59.0 °F - 37.0 °F 44% 30.30 in 10.0 mi North 10.4 mph - N/A   Clear
12:53 PM 61.0 °F - 35.1 °F 38% 30.27 in 10.0 mi North 6.9 mph - N/A   Clear
1:53 PM 62.1 °F - 34.0 °F 35% 30.24 in 10.0 mi North 10.4 mph - N/A   Clear
2:53 PM 62.1 °F - 33.1 °F 34% 30.22 in 10.0 mi North 6.9 mph - N/A   Clear
3:53 PM 61.0 °F - 33.1 °F 35% 30.22 in 10.0 mi North 6.9 mph - N/A   Clear
4:53 PM 55.9 °F - 34.0 °F 44% 30.22 in 10.0 mi NNW 6.9 mph - N/A   Clear
5:53 PM 51.1 °F - 34.0 °F 52% 30.22 in 10.0 mi North 5.8 mph - N/A   Clear
6:53 PM 48.9 °F - 34.0 °F 56% 30.23 in 10.0 mi North 4.6 mph - N/A   Clear
7:53 PM 46.9 °F - 33.1 °F 59% 30.23 in 10.0 mi North 4.6 mph - N/A   Clear
8:53 PM 46.0 °F 44.8 °F 37.0 °F 71% 30.24 in 10.0 mi NW 3.5 mph - N/A   Clear
9:53 PM 43.0 °F 41.3 °F 35.1 °F 74% 30.23 in 10.0 mi North 3.5 mph - N/A   Clear
10:53 PM 43.0 °F - 36.0 °F 76% 30.22 in 10.0 mi Calm Calm - N/A   Clear
11:53 PM 39.9 °F - 33.1 °F 77% 30.20 in 10.0 mi Calm Calm - N/A   Clear